Вернуться в каталог

COSMOS 770

АктивенВоенныеPO
NORAD 8325·PAYLOAD·🇷🇺 Russia

Запущен Sep 24, 1975 с Plesetsk Cosmodrome

Loading…

Ближайшие Пролёты (ближайшие 24 часа)

TLE

СвежийSource: Space-Track

Эпоха: Sep 14, 2026, 14:29 UTC

1 08325U 75089A   26257.60353047  .00000028  00000-0  36800-4 0  9998
2 08325  82.9584 308.7950 0027648 227.5078 298.5068 13.19809095455182

Отслеживайте COSMOS 770 в реальном времени с AllMySat

Download on the App Store